Weather in Kyrgyz

Uzbekistan     39°02′07″N   66°35′47″E
temp.,
°C
wind,
m/s
gust,
m/s
humid.,
%
clouds,
%
prec.,
mm/h
press.,
hPa
HPBL,
m
10 may, mon
mon1023:00+20ene34603 0.0 100958
02:00+19ene336763 0.1 100847
05:00+19nne2266100 0.2 100826
08:00+22e2255100 0.2 1009216
11:00+27wnw1241100 0.2 1008944
14:00+27w6642100 0.0 10081362
17:00+27n11392 0.0 10071698
20:00+21ene476334 0.0 1009113
11 may, tue
tue1123:00+20ene466622 0.2 101085
02:00+17ne347946 1.3 101071
05:00+16ene477979 2.4 1012127
08:00+21ene455589 0.4 1013272
11:00+26n22370 0.4 10121144
14:00+29n65280 0.0 10112271
17:00+27ne772274 0.0 10111340
20:00+21n4830100 0.0 1012123
12 may, wed
wed1223:00+18ne453431 0.0 101283
02:00+17ne353797 0.0 101268
05:00+16ne45430 0.0 101261
08:00+21ene23382 0.0 1012220
11:00+26ssw22290 0.0 10121360
14:00+28ne11220 0.0 10102214
17:00+29n43200 0.0 10092480
20:00+22nne48340 0.0 1010149
13 may, thu
thu1323:00+19ne46400 0.0 101090
02:00+18ne46425 0.0 100993
05:00+17ne48474 0.0 1009114
08:00+22ene46394 0.0 1009304
11:00+28ssw0226100 0.0 10091494
14:00+30wnw3219100 0.0 10082883
17:00+29nw531898 0.0 10072124
20:00+22nne61131100 0.0 1008234
14 may, fri
fri1423:00+19ne48352 0.0 1008138
02:00+18ene510405 0.0 1008164
05:00+17ne594235 0.0 1008138
08:00+22ne57340 0.0 1009319
11:00+29ne32190 0.0 10081093
14:00+31n63140 0.0 10072989
17:00+29ne76180 0.0 10071203
20:00+21ne47290 0.0 1009142